GORIZONT 14 [-]

Last updated on Nov. 15, 2019, 4:20 a.m. UTC

1 17969U 87040A   19317.60216436 -.00000044  00000-0  00000-0 0  9999
2 17969  14.5969 338.9662 0026472 149.4739  39.3373  0.97657628 96343
UTC
Height (km)
Latitude
Longitude
Inclination
Orbital Period
UTC large
Height (km)
Speed (km/s)
/
Latitude / Longitude
Inclination (degrees)
Orbital Period (minutes)
Azimuth
Elevation
Range (km)
Doppler Factor
iOS Compass Heading
iOS Angle

Next 30 passes for location: Hong Kong

Rise time Rise Azimuth (degrees) Set time Set Azimuth (degrees) Duration Max altitude (degrees)

No matching passes for this satellites